Date,TemperatureHighF,TemperatureAvgF,TemperatureLowF,DewpointHighF,DewpointAvgF,DewpointLowF,HumidityHigh,HumidityAvg,HumidityLow,PressureMaxIn,PressureMinIn,WindSpeedMaxMPH,WindSpeedAvgMPH,GustSpeedMaxMPH,PrecipitationSumIn
2013-1-1,26.3,20.6,11.9,19.0,13.1,7.5,86,73,61,30.22,30.07,7,3,10,0.00
2013-1-2,24.9,21.4,16.5,20.4,16.5,11.6,84,81,77,30.24,30.13,5,2,11,0.00
2013-1-3,28.4,23.0,15.8,25.0,18.4,10.1,92,82,73,30.21,30.09,7,3,14,0.00
2013-1-4,29.9,27.0,24.3,23.7,21.5,19.8,86,79,74,30.22,30.04,10,6,19,0.00
2013-1-5,34.4,26.0,15.5,29.9,22.3,13.3,94,86,72,30.32,30.05,8,2,13,0.02
2013-1-6,34.7,33.0,30.8,32.2,29.5,26.0,93,87,79,30.30,29.93,7,3,18,0.01
2013-1-7,37.2,30.8,27.0,26.1,24.1,21.4,83,76,62,30.40,30.16,9,3,19,0.04
2013-1-8,37.7,30.6,25.0,28.5,24.7,21.0,86,79,68,30.28,30.17,7,2,15,0.01
2013-1-9,44.7,38.1,30.2,34.1,29.8,24.5,87,72,51,30.45,30.03,14,7,27,0.02
2013-1-10,43.6,32.1,21.1,32.4,26.3,19.0,95,80,56,30.62,30.19,7,2,15,0.09
2013-1-11,54.5,44.2,35.1,51.5,41.9,31.7,97,92,83,30.19,29.77,11,4,20,0.60
2013-1-12,59.0,50.0,44.7,50.9,45.1,35.7,93,84,67,29.95,29.82,7,2,15,0.00
2013-1-13,45.4,35.9,27.1,38.6,34.0,24.5,95,93,70,30.08,29.81,8,3,13,0.44
2013-1-14,27.0,21.2,13.8,24.5,16.8,11.4,92,83,76,30.49,30.08,10,4,17,0.00
2013-1-15,28.3,19.2,10.2,21.2,14.9,7.9,94,84,67,30.51,30.22,2,0,4,0.07
2013-1-16,34.5,25.4,14.5,28.8,18.9,12.4,93,78,51,30.22,29.84,10,3,18,0.00
2013-1-17,33.0,27.1,16.4,28.9,20.3,8.2,89,75,62,30.37,30.00,12,5,22,0.00
2013-1-18,34.9,23.8,10.5,24.1,16.3,7.6,90,74,56,30.48,29.99,12,4,26,0.00
2013-1-19,45.5,40.9,34.8,35.9,31.5,24.1,78,69,63,29.99,29.56,10,5,17,0.00
2013-1-20,42.7,20.1,13.6,35.5,9.8,3.3,76,64,49,30.23,29.55,17,9,30,0.01
2013-1-21,14.9,10.9,3.4,10.7,4.1,-4.9,87,74,59,30.21,30.02,11,4,18,0.00
2013-1-22,8.6,2.9,-3.1,2.2,-4.5,-10.9,81,71,59,30.37,30.18,9,4,19,0.00
2013-1-23,16.4,8.8,-1.0,11.1,3.6,-5.4,87,79,67,30.37,30.15,5,1,13,0.00
2013-1-24,14.5,9.0,4.2,10.8,3.1,-1.5,89,77,54,30.68,30.20,5,2,10,0.00
2013-1-25,20.7,16.2,10.6,15.4,11.5,2.8,95,82,70,30.58,30.07,7,2,14,0.00
2013-1-26,26.1,19.7,11.3,16.7,14.8,8.2,90,81,65,30.50,30.10,7,2,12,0.04
2013-1-27,28.9,21.4,10.0,26.8,16.1,7.4,93,81,63,30.53,30.17,9,3,16,0.00
2013-1-28,44.2,36.6,28.9,43.4,35.0,26.9,97,94,89,30.19,29.88,8,4,15,0.37
2013-1-29,57.1,45.3,30.6,54.6,44.2,29.1,100,96,91,30.06,29.45,12,5,21,0.50
2013-1-30,56.9,47.9,30.7,55.0,46.4,27.0,98,94,86,29.47,29.10,12,4,29,0.76
2013-1-31,30.6,20.2,14.5,26.8,15.8,10.8,91,83,71,29.93,29.26,16,8,26,0.00
2013-2-1,17.2,13.5,8.8,11.1,7.9,2.2,88,78,67,30.31,29.93,10,5,17,0.00
2013-2-2,20.2,13.7,1.8,16.3,9.6,-1.2,88,83,76,30.26,30.03,6,2,13,0.00
2013-2-3,19.4,10.1,-2.3,15.2,5.5,-5.5,90,82,67,30.09,29.92,8,2,14,0.00
2013-2-4,22.9,17.2,9.4,17.2,13.0,5.0,88,83,76,30.09,29.94,3,0,5,0.00
2013-2-5,26.9,18.7,3.7,26.4,15.0,0.9,99,86,70,30.03,29.85,8,2,14,0.00
2013-2-6,30.5,21.6,7.4,21.7,15.1,4.8,94,77,60,30.34,30.03,9,2,12,0.02
2013-2-7,37.7,30.0,24.8,28.4,22.9,17.1,88,75,68,30.33,29.94,6,3,13,0.01
2013-2-8,28.3,23.8,11.1,27.5,20.7,8.5,100,88,72,30.41,29.87,13,5,27,0.01
2013-2-9,32.7,16.2,-2.4,21.0,10.3,-5.7,94,79,54,30.52,30.33,6,1,11,0.24
2013-2-10,39.4,31.1,21.0,36.7,25.2,18.1,92,79,62,30.34,29.71,13,5,23,0.21
2013-2-11,43.7,36.8,31.4,41.9,31.7,25.6,95,82,68,29.87,29.56,16,9,25,0.03
2013-2-12,31.4,29.2,27.0,25.6,23.4,21.2,81,79,75,30.07,29.88,10,5,18,0.00
2013-2-13,38.1,29.5,25.6,28.2,24.0,21.3,92,80,65,29.98,29.77,5,2,10,0.00
2013-2-14,40.0,33.8,28.7,34.6,30.3,26.1,92,87,80,29.87,29.69,12,5,22,0.03
2013-2-15,32.4,25.6,20.8,28.3,17.7,12.9,86,72,59,30.17,29.88,9,5,16,0.00
2013-2-16,23.3,18.8,13.7,18.6,13.8,9.9,89,81,68,30.15,30.04,7,2,12,0.00
2013-2-17,22.0,14.0,5.7,14.1,7.0,1.9,89,74,53,30.27,30.12,9,3,15,0.01
2013-2-18,39.0,24.8,14.6,26.7,15.2,6.9,72,67,59,30.27,29.82,12,7,25,0.00
2013-2-21,22.2,20.1,19.0,18.1,14.9,13.9,88,80,71,30.43,30.33,4,2,15,0.00
2013-2-22,32.4,26.4,21.1,31.1,23.8,17.7,95,90,83,30.33,29.92,9,4,15,0.01
2013-2-23,32.4,28.9,23.6,30.9,24.0,19.8,94,82,69,29.96,29.90,9,4,14,0.02
2013-2-24,35.5,26.7,18.5,27.3,22.3,16.1,92,84,64,30.20,29.93,8,2,15,0.06
2013-2-25,41.9,29.9,17.3,27.8,22.6,14.9,93,76,52,30.29,30.15,3,0,7,0.01
2013-2-26,36.1,30.8,25.6,31.5,26.5,20.9,95,84,70,30.18,29.57,5,2,14,0.17
2013-2-27,35.3,33.6,32.4,34.0,32.2,31.1,96,95,92,29.60,29.50,3,0,7,0.46
2013-2-28,33.8,31.8,28.1,32.0,29.3,23.9,96,91,82,30.03,29.58,10,6,21,0.17
2013-3-1,28.1,24.9,23.2,25.3,20.8,19.0,92,84,81,30.18,30.02,9,5,16,0.00
2013-3-2,23.9,22.5,18.1,19.7,18.5,14.9,90,84,81,30.15,30.12,7,4,13,0.00
2013-3-3,25.6,20.1,12.7,18.6,14.9,10.0,90,80,69,30.12,30.07,9,3,17,0.01
2013-3-4,31.0,19.6,8.5,18.0,13.3,5.9,92,77,54,30.22,30.12,6,1,8,0.02
2013-3-5,38.4,25.9,12.8,26.4,20.1,10.4,92,79,58,30.20,29.91,5,2,14,0.00
2013-3-6,36.0,30.9,25.1,29.7,26.7,22.0,90,84,76,30.26,29.94,6,3,12,0.00
2013-3-7,32.5,29.6,19.6,29.2,24.8,16.5,93,83,64,30.45,30.25,7,2,14,0.02
2013-3-8,43.4,28.4,15.3,29.9,22.2,13.0,94,79,55,30.56,30.45,4,1,7,0.00
2013-3-9,43.8,35.3,24.5,32.8,28.1,22.2,93,76,59,30.46,30.06,9,3,16,0.00
2013-3-10,57.8,50.2,40.0,45.7,39.1,32.5,77,66,56,30.07,29.80,10,4,19,0.00
2013-3-11,56.2,48.9,36.5,48.0,43.7,32.8,95,83,56,29.82,29.46,12,6,21,0.45
2013-3-12,36.5,33.3,28.9,33.2,28.6,24.3,89,83,70,29.94,29.67,10,5,16,0.00
2013-3-13,31.8,27.3,22.1,26.9,20.4,14.9,92,76,56,30.25,29.90,11,6,24,0.01
2013-3-14,38.4,29.1,20.4,23.4,18.9,14.6,82,66,51,30.31,30.12,7,3,14,0.01
2013-3-15,37.7,33.7,28.2,33.2,28.9,19.2,95,83,61,30.12,29.88,7,3,13,0.04
2013-3-16,32.9,27.6,23.5,31.6,24.7,20.3,95,89,75,30.08,29.82,7,2,15,0.08
2013-3-17,32.1,25.1,19.1,23.6,16.3,11.9,86,70,50,30.33,30.08,7,3,13,0.07
2013-3-18,33.7,28.0,18.7,32.2,24.1,13.1,95,85,77,30.26,29.60,9,4,22,0.11
2013-3-19,33.7,25.0,21.8,30.9,19.9,15.9,91,81,71,29.97,29.63,14,8,21,0.00
2013-3-20,26.8,22.4,15.7,18.2,14.9,10.9,81,73,59,30.00,29.93,10,6,19,0.00
2013-3-21,29.3,23.3,14.8,25.0,18.6,10.6,98,82,71,29.99,29.90,8,5,15,0.01
2013-3-22,37.5,28.9,24.3,24.9,20.9,17.8,83,72,58,30.08,29.98,8,4,14,0.01
2013-3-23,33.9,29.1,23.8,25.6,23.3,20.5,90,79,69,30.16,30.06,5,1,9,0.00
2013-3-24,37.8,28.1,19.7,28.6,23.0,17.5,94,82,59,30.12,29.73,6,2,16,0.00
2013-3-25,38.0,33.4,29.7,30.1,26.8,24.3,82,76,67,29.97,29.65,9,5,17,0.00
2013-3-26,42.7,35.4,31.4,33.2,29.6,27.2,88,79,59,30.15,29.97,8,3,14,0.00
2013-3-27,45.0,37.0,29.1,30.0,27.2,24.8,85,69,51,30.24,30.15,11,5,20,0.01
2013-3-28,50.2,38.4,29.8,31.2,26.7,24.0,81,64,44,30.31,30.24,10,4,17,0.00
2013-3-29,50.5,26.0,29.0,28.3,-24.9,-99.9,78,30,37,30.32,30.23,6,-401,12,0.00
2013-3-30,55.3,29.6,23.9,32.1,-21.6,-99.9,93,29,28,30.25,29.93,7,-378,14,0.00
2013-3-31,55.7,17.3,45.1,41.1,-53.1,-99.9,80,21,50,29.93,29.63,10,-657,17,0.00
2013-4-1,34.4,14.6,26.0,21.6,-44.3,-99.9,80,27,45,30.14,29.70,11,-518,21,0.00
2013-4-2,39.2,14.8,30.9,18.3,-51.9,-99.9,57,18,37,30.29,30.13,11,-581,19,0.00
2013-4-3,42.1,19.5,27.3,19.5,-34.9,-99.9,67,27,37,30.48,30.28,15,-440,17,0.00
2013-4-4,56.0,41.4,28.0,24.3,20.3,15.7,65,45,27,30.39,29.98,8,3,14,0.00
2013-4-5,46.1,39.1,31.0,31.7,23.9,19.0,88,56,36,30.24,29.97,9,3,18,0.00
2013-4-6,49.6,39.4,29.9,27.7,23.5,17.0,77,54,38,30.27,29.78,12,6,22,0.00
2013-4-7,56.4,46.4,31.2,47.2,36.5,27.3,89,69,41,30.07,29.61,13,6,21,0.00
2013-4-8,61.7,42.8,28.7,54.5,38.8,26.4,95,86,67,30.08,29.72,13,4,22,0.33
2013-4-9,49.6,43.8,39.5,44.7,41.8,37.9,96,93,79,30.12,29.91,8,2,14,0.68
2013-4-10,42.3,39.4,36.3,41.2,38.2,33.9,96,95,91,30.10,29.84,9,2,18,0.59
2013-4-11,37.2,35.9,35.0,35.3,34.3,33.6,95,94,91,30.06,29.69,7,3,23,0.90
2013-4-12,41.9,37.0,33.1,38.5,34.9,32.1,96,92,78,29.79,29.58,9,2,15,0.29
2013-4-13,39.9,37.5,34.9,37.8,31.3,26.8,95,79,63,30.02,29.79,12,6,22,0.03
2013-4-14,48.1,38.6,28.7,38.2,32.1,26.0,93,78,64,30.15,29.96,8,2,15,0.02
2013-4-15,67.4,55.8,41.7,55.4,46.7,34.7,91,72,61,29.97,29.87,13,5,22,0.03
2013-4-16,59.7,50.9,43.5,55.0,42.7,35.6,94,75,44,30.25,29.87,9,3,17,0.01
2013-4-17,59.2,46.5,37.7,44.3,37.0,31.5,94,71,46,30.39,30.02,14,2,22,0.64
2013-4-18,75.8,57.0,44.7,65.7,53.7,41.8,95,89,70,30.03,29.54,16,5,27,0.56
2013-4-19,58.4,43.8,31.9,57.0,39.2,30.0,96,84,68,29.76,29.33,13,8,25,0.88
2013-4-20,37.0,32.0,26.4,30.3,23.0,16.4,93,70,59,30.50,29.76,10,5,19,0.09
2013-4-21,49.7,36.1,21.5,30.1,24.9,19.5,95,67,41,30.67,30.49,7,2,15,0.01
2013-4-22,62.4,48.1,31.2,35.4,30.1,23.4,90,53,29,30.51,30.22,7,2,12,0.00
2013-4-23,67.6,55.6,45.9,53.2,43.2,34.8,94,65,47,30.22,29.83,11,4,20,0.30
2013-4-24,47.9,40.2,33.8,46.2,35.3,27.9,95,83,65,30.16,29.80,9,4,16,0.43
2013-4-25,49.4,40.7,34.4,40.9,31.9,27.4,91,72,46,30.38,30.11,10,4,20,0.07
2013-4-26,59.3,45.0,28.9,39.3,32.9,27.0,94,66,44,30.49,30.35,10,3,20,0.00
2013-4-27,69.7,56.9,40.8,44.4,38.9,35.3,83,54,30,30.38,30.12,7,2,15,0.00
2013-4-28,61.7,54.2,50.7,52.5,46.0,36.0,96,76,52,30.12,29.85,7,1,12,0.19
2013-4-29,69.8,59.5,52.1,56.5,53.4,51.3,98,82,56,29.95,29.85,4,1,9,0.01
2013-4-30,72.2,62.0,55.3,58.5,55.0,52.1,93,79,58,30.07,29.92,13,5,22,0.26
2013-5-1,81.1,70.3,59.0,60.4,56.1,53.4,83,63,44,30.23,30.05,8,3,16,0.00
2013-5-2,78.0,68.1,55.0,57.3,52.4,47.3,81,59,42,30.24,30.12,8,3,18,0.00
2013-5-3,77.0,67.6,58.0,57.7,47.3,39.4,59,49,30,30.14,30.05,8,3,16,0.00
2013-5-4,71.3,63.7,51.5,49.9,44.0,35.0,68,50,28,30.12,30.06,8,3,17,0.00
2013-5-5,73.3,61.6,51.0,49.7,41.1,33.5,73,50,24,30.12,30.04,6,2,16,0.00
2013-5-6,76.9,58.5,39.6,52.1,44.2,37.7,96,63,36,30.08,29.98,5,1,12,0.00
2013-5-7,77.8,59.1,44.8,55.7,48.0,42.3,93,70,40,30.08,30.00,5,1,11,0.00
2013-5-8,81.4,67.5,48.3,54.5,50.2,45.6,96,58,32,30.04,29.93,4,1,8,0.00
2013-5-9,80.4,66.8,50.8,58.4,52.7,48.2,94,64,36,29.98,29.88,2,0,6,0.00
2013-5-10,67.1,51.3,41.0,58.4,48.6,39.0,96,91,63,29.91,29.75,7,3,15,0.36
2013-5-11,61.5,46.1,37.0,49.1,41.4,32.8,96,84,57,29.92,29.74,11,3,20,0.01
2013-5-12,45.6,39.3,29.6,34.3,30.6,25.0,87,71,55,30.13,29.89,12,6,26,0.00
2013-5-13,53.7,40.5,26.5,34.4,27.4,22.5,88,62,36,30.22,30.13,8,2,16,0.00
2013-5-14,76.0,56.8,42.6,54.9,40.8,30.4,76,56,43,30.14,29.72,8,2,15,0.00
2013-5-15,79.1,69.3,54.7,59.9,52.7,47.1,82,58,36,29.80,29.57,9,4,18,0.01
2013-5-16,79.1,63.2,45.2,52.6,46.9,39.9,95,59,33,30.05,29.79,6,1,12,0.00
2013-5-17,71.5,58.8,44.3,49.5,44.4,39.4,85,60,40,30.16,30.05,4,1,10,0.00
2013-5-18,81.2,66.6,53.1,52.2,47.3,43.6,79,52,33,30.17,30.03,6,1,15,0.00
2013-5-19,87.0,72.2,53.0,64.3,56.4,46.0,85,59,44,30.06,29.86,3,1,11,0.00
2013-5-20,89.5,75.0,65.8,71.7,65.5,60.9,94,74,48,29.92,29.74,17,3,25,0.44
2013-5-21,82.3,73.8,64.8,67.2,64.5,60.6,94,74,52,29.80,29.70,6,2,14,0.04
2013-5-22,78.4,68.0,61.7,65.8,63.2,60.0,94,85,61,29.73,29.60,8,2,18,0.13
2013-5-23,61.8,50.7,41.0,60.2,49.1,39.1,95,94,92,30.18,29.67,8,3,21,0.33
2013-5-24,55.1,45.0,38.2,42.2,38.0,33.5,96,78,55,30.41,30.18,7,3,13,0.00
2013-5-25,63.0,49.2,33.7,44.4,38.4,32.2,96,70,39,30.45,30.32,6,1,11,0.01
2013-5-26,67.2,52.8,34.4,43.8,38.8,32.6,96,63,37,30.39,30.26,5,1,14,0.00
2013-5-27,65.3,52.7,40.4,49.5,42.1,31.0,94,70,41,30.29,30.03,7,2,15,0.03
2013-5-28,73.1,60.7,51.2,69.3,59.1,49.5,98,95,87,30.03,29.76,7,1,13,1.07
2013-5-29,80.2,71.6,63.0,68.7,65.7,61.5,97,83,65,29.98,29.75,7,1,16,0.24
2013-5-30,85.1,74.8,67.0,74.6,67.7,62.2,92,79,64,30.04,29.94,6,1,16,0.36
2013-5-31,81.2,73.6,69.0,70.8,67.4,66.0,91,81,69,29.97,29.83,7,3,18,0.06
2013-6-1,78.2,70.2,64.0,68.0,64.8,62.0,96,84,66,29.86,29.67,7,2,14,0.21
2013-6-2,67.6,61.6,50.8,63.6,55.5,43.1,89,81,73,30.01,29.63,9,4,21,0.00
2013-6-3,66.0,52.8,37.5,48.6,42.6,35.6,95,70,48,30.11,30.01,6,2,11,0.00
2013-6-4,71.5,56.6,42.7,51.2,45.6,41.2,97,70,44,30.22,30.11,2,0,6,0.00
2013-6-5,73.3,60.8,48.6,53.1,45.3,38.5,82,58,40,30.20,30.01,4,1,9,0.00
2013-6-6,67.4,59.7,55.3,56.2,50.3,45.7,80,71,64,30.04,29.88,5,2,12,0.00
2013-6-7,62.6,55.0,48.9,54.5,50.7,46.5,94,86,73,29.95,29.90,4,1,9,0.00
2013-6-8,73.0,62.1,53.2,57.2,53.6,50.6,92,75,52,30.08,29.93,2,0,6,0.00
2013-6-9,75.7,68.0,54.1,61.2,56.3,51.8,93,67,54,30.12,29.95,7,3,16,0.00
2013-6-10,74.7,65.9,59.7,68.3,62.2,52.9,97,89,61,29.96,29.73,4,1,16,1.42
2013-6-11,78.9,69.5,61.8,68.9,64.5,60.8,98,85,66,29.90,29.79,6,1,12,0.02
2013-6-12,74.7,67.5,58.4,68.2,64.0,57.3,97,89,76,29.93,29.66,6,0,11,0.02
2013-6-13,77.0,67.7,61.0,65.6,60.6,57.1,96,80,53,29.94,29.60,8,3,15,1.16
2013-6-14,75.2,64.4,55.5,60.2,55.0,50.5,94,74,43,30.10,29.94,6,1,12,0.00
2013-6-15,75.9,66.5,56.2,65.7,59.3,50.0,92,78,61,30.09,29.91,4,0,9,0.00
2013-6-16,80.2,69.8,61.4,68.1,62.6,56.7,95,79,50,29.91,29.75,6,2,15,0.42
2013-6-17,83.9,68.5,55.9,66.9,59.7,54.2,95,75,48,29.95,29.82,6,1,12,0.00
2013-6-18,70.5,61.6,52.7,58.4,50.8,43.1,94,70,41,30.10,29.90,5,2,13,0.02
2013-6-19,76.3,61.0,42.8,55.8,48.7,40.8,95,67,41,30.20,30.09,2,0,6,0.00
2013-6-20,81.7,68.3,52.9,60.2,55.2,49.9,91,65,39,30.22,30.14,4,1,10,0.00
2013-6-21,84.2,72.5,59.2,69.1,61.1,52.9,87,68,52,30.21,30.04,4,1,13,0.03
2013-6-22,88.0,77.5,69.6,73.7,68.0,59.8,90,73,56,30.08,29.96,5,1,11,0.01
2013-6-23,89.5,79.1,69.7,72.9,69.6,67.8,95,75,52,30.03,29.94,4,1,11,0.00
2013-6-24,87.1,76.5,68.2,73.1,68.9,64.8,95,78,58,30.04,29.90,9,1,12,0.14
2013-6-25,79.8,71.4,66.2,72.2,67.9,64.0,96,89,74,29.95,29.82,6,1,11,0.21
2013-6-26,84.5,74.2,63.5,72.7,68.4,62.1,97,83,65,29.87,29.74,2,0,6,0.01
2013-6-27,84.7,72.6,64.4,73.9,68.2,63.1,96,87,66,29.76,29.62,12,0,30,1.65
2013-6-28,77.0,66.9,63.4,68.1,64.3,61.6,97,92,70,29.65,29.53,6,1,12,0.36
2013-6-29,73.8,67.4,62.1,64.7,61.6,58.4,96,83,66,29.75,29.55,5,1,11,0.00
2013-6-30,79.3,68.4,59.0,65.3,59.8,48.5,91,75,54,29.98,29.75,6,1,13,0.10
2013-7-1,69.4,61.5,53.7,59.0,53.5,47.8,88,75,58,30.10,29.97,5,1,12,0.03
2013-7-2,75.7,65.5,56.4,65.0,59.0,52.8,91,80,66,30.09,30.04,3,1,10,0.00
2013-7-3,82.7,70.7,59.3,71.4,64.2,56.9,94,81,58,30.10,30.03,4,1,10,0.00
2013-7-4,80.2,72.1,65.1,67.5,64.4,59.9,94,78,53,30.12,30.06,5,1,13,0.00
2013-7-5,85.0,74.0,64.8,68.0,64.6,61.5,93,74,50,30.12,30.04,2,0,5,0.00
2013-7-6,84.3,75.5,66.4,72.0,69.0,64.6,95,81,62,30.10,29.98,5,1,10,0.00
2013-7-7,82.8,73.8,68.7,72.2,69.2,67.1,96,86,65,30.03,29.94,3,0,9,0.25
2013-7-8,82.0,74.4,69.2,75.9,70.2,66.1,94,87,78,30.02,29.95,5,0,12,0.06
2013-7-9,87.8,74.8,68.3,75.5,70.4,66.5,96,87,63,29.98,29.85,7,0,13,0.60
2013-7-10,86.1,76.7,64.3,75.5,69.6,57.8,97,80,60,29.95,29.74,8,2,18,0.07
2013-7-11,77.5,66.5,55.1,62.2,57.5,53.7,96,75,49,30.09,29.94,6,1,11,0.00
2013-7-12,82.3,67.5,52.3,67.0,58.9,50.8,96,76,48,30.18,30.08,2,0,7,0.00
2013-7-13,85.2,73.1,57.0,65.7,61.0,55.3,97,69,44,30.22,30.15,5,1,10,0.00
2013-7-14,90.4,78.1,62.9,72.8,68.5,61.2,96,74,54,30.25,30.21,3,0,6,0.00
2013-7-15,91.9,79.0,68.6,78.6,73.0,67.0,97,83,61,30.29,30.21,3,0,10,0.26
2013-7-16,91.8,81.2,72.8,79.1,74.8,71.6,97,82,59,30.30,30.22,3,0,9,0.00
2013-7-17,93.0,81.6,71.6,80.1,75.1,70.0,95,82,61,30.27,30.13,4,1,12,0.00
2013-7-18,92.4,81.8,71.4,78.5,74.3,69.9,96,79,60,30.15,29.93,6,1,11,0.00
2013-7-19,92.1,82.6,76.1,77.1,74.1,67.4,90,76,53,29.94,29.68,13,2,18,0.01
2013-7-20,85.0,76.5,65.5,73.0,65.4,58.8,92,70,45,29.93,29.70,6,1,12,0.00
2013-7-21,81.8,70.9,59.0,64.8,60.3,54.8,93,71,52,30.02,29.92,3,0,6,0.00
2013-7-22,82.4,73.7,65.8,70.0,65.9,61.1,93,77,59,29.96,29.75,5,1,11,0.02
2013-7-23,79.7,69.2,59.8,73.6,64.2,51.1,95,84,64,29.90,29.66,9,2,17,0.74
2013-7-24,72.5,62.1,51.4,55.2,51.8,47.1,87,70,51,30.07,29.90,4,1,12,0.00
2013-7-25,77.8,63.5,47.8,60.1,53.1,46.3,96,72,45,30.13,30.06,3,0,9,0.00
2013-7-26,79.5,68.8,59.0,63.5,59.3,54.6,88,73,54,30.12,29.91,5,1,12,0.04
2013-7-27,76.8,65.4,55.1,67.1,61.5,50.1,94,87,68,29.92,29.73,6,1,12,0.38
2013-7-28,64.3,56.9,50.2,56.7,52.2,47.8,93,85,70,29.99,29.83,8,1,13,0.04
2013-7-29,69.3,60.4,55.2,59.3,55.6,52.8,94,85,67,30.20,29.97,4,1,10,0.05
2013-7-30,78.3,64.8,49.2,62.2,56.8,47.8,97,78,52,30.25,30.13,3,0,6,0.00
2013-7-31,68.7,65.8,63.4,65.3,63.4,61.0,96,92,87,30.13,29.90,3,0,6,0.66
2013-8-1,76.4,66.6,57.5,65.9,61.2,54.1,96,84,56,29.92,29.88,5,1,12,0.00
2013-8-2,73.7,63.6,53.1,64.8,59.1,51.3,95,86,68,29.93,29.84,5,1,12,0.00
2013-8-3,76.6,66.2,54.0,63.1,57.9,52.4,96,76,50,30.07,29.91,5,1,11,0.00
2013-8-4,72.2,62.1,53.2,58.7,54.7,50.6,93,78,55,30.19,30.07,5,1,12,0.00
2013-8-5,71.3,62.7,52.6,58.8,54.6,50.1,93,76,54,30.13,29.97,5,1,12,0.00
2013-8-6,77.5,68.9,63.0,70.0,64.0,57.1,93,85,74,29.98,29.88,5,2,12,0.13
2013-8-7,83.6,72.2,63.1,73.5,67.7,61.3,95,86,70,29.91,29.81,8,1,13,0.60
2013-8-8,76.2,68.0,60.4,67.8,61.5,56.7,94,81,58,30.02,29.91,3,1,10,0.00
2013-8-9,79.1,67.7,53.8,63.4,59.0,52.1,96,76,52,30.02,29.94,5,1,11,0.00
2013-8-10,77.0,67.0,55.9,61.9,58.6,54.2,96,76,51,30.15,30.02,4,0,7,0.00
2013-8-11,77.3,68.0,61.4,64.3,60.0,56.9,93,76,54,30.13,30.04,2,0,9,0.00
2013-8-12,69.0,65.3,62.3,67.0,63.1,60.2,96,93,89,30.07,29.85,4,0,9,0.54
2013-8-13,67.1,59.9,52.7,63.8,52.3,46.1,96,77,51,30.08,29.85,7,3,17,0.00
2013-8-14,69.4,57.6,47.1,55.1,50.0,44.6,93,77,53,30.19,30.07,5,1,11,0.00
2013-8-15,73.1,60.0,45.8,58.6,52.3,44.4,96,78,53,30.20,30.10,4,0,9,0.00
2013-8-16,80.7,63.9,48.9,60.6,54.7,47.2,96,75,44,30.22,30.12,3,0,6,0.00
2013-8-17,81.6,65.2,49.9,62.6,55.4,48.5,97,74,44,30.29,30.19,2,0,6,0.01
2013-8-18,82.5,65.6,51.7,64.3,57.4,50.0,97,78,46,30.25,30.12,1,0,6,0.00
2013-8-19,82.1,68.0,53.7,65.4,59.0,52.1,96,76,46,30.13,30.03,3,0,9,0.00
2013-8-20,85.5,70.6,57.8,68.7,63.1,56.4,96,79,54,30.14,30.07,3,0,10,0.00
2013-8-21,85.9,74.7,64.7,72.4,67.7,62.4,94,80,58,30.12,29.98,5,1,10,0.00
2013-8-22,81.2,74.2,67.7,69.3,67.3,64.4,93,80,61,30.05,29.92,5,1,12,0.00
2013-8-23,82.3,67.5,52.1,66.3,57.8,50.4,96,74,44,30.22,30.04,5,1,10,0.00
2013-8-24,83.5,68.1,51.3,63.2,57.4,49.6,97,72,44,30.33,30.22,2,0,5,0.00
2013-8-25,87.1,73.8,62.5,69.5,63.6,57.5,91,72,53,30.29,30.14,4,1,12,0.00
2013-8-26,85.4,75.4,66.6,74.0,67.8,61.9,94,78,66,30.14,29.96,5,1,12,0.06
2013-8-27,82.4,74.5,69.5,76.3,71.8,67.7,95,92,81,30.00,29.82,7,0,14,1.29
2013-8-28,82.0,74.1,65.0,74.6,71.0,63.0,96,91,76,30.02,29.79,6,1,12,0.42
2013-8-29,87.3,72.8,62.7,73.4,66.9,61.3,97,83,56,30.09,30.00,2,0,7,0.01
2013-8-30,86.1,75.8,66.4,73.9,69.8,64.2,95,83,62,30.00,29.72,5,1,13,0.06
2013-8-31,78.7,72.1,66.1,72.7,67.4,63.7,95,86,69,29.86,29.75,4,1,10,0.01
2013-9-1,80.7,70.2,63.1,72.5,66.9,61.1,96,90,75,29.86,29.72,6,0,18,0.47
2013-9-2,71.9,65.5,56.3,68.3,60.8,52.6,96,85,68,29.93,29.73,6,2,15,0.00
2013-9-3,73.6,62.2,56.4,58.8,54.7,51.9,90,77,54,30.03,29.92,6,2,11,0.00
2013-9-4,78.8,65.3,52.2,65.4,58.8,50.3,96,81,60,30.09,30.00,6,2,14,0.01
2013-9-5,69.8,58.7,47.5,62.0,50.6,44.9,93,76,49,30.28,30.09,5,1,11,0.00
2013-9-6,75.6,60.0,44.6,56.8,51.2,43.0,96,75,47,30.31,30.08,3,1,9,0.00
2013-9-7,76.5,67.6,59.2,71.3,61.5,50.1,95,81,66,30.08,29.89,4,0,9,0.15
2013-9-8,72.8,66.8,55.6,63.4,56.1,50.5,92,69,56,30.11,30.05,4,1,12,0.00
2013-9-9,78.1,64.9,50.7,71.5,60.9,48.1,93,87,78,30.08,29.88,5,1,10,0.05
2013-9-10,92.0,80.3,71.1,74.7,70.6,66.8,91,74,46,29.99,29.86,6,1,16,0.00
2013-9-11,88.5,77.2,68.7,74.8,69.4,64.5,87,77,61,30.01,29.91,8,1,14,0.00
2013-9-12,76.0,65.9,55.1,65.4,59.6,45.9,95,81,53,29.98,29.86,9,2,20,0.17
2013-9-13,57.2,51.8,39.8,47.2,44.2,37.9,93,76,51,30.17,29.98,7,3,15,0.00
2013-9-14,68.9,51.1,35.9,48.2,42.4,34.3,96,75,41,30.23,30.11,3,0,10,0.00
2013-9-15,61.3,54.5,48.7,54.3,49.4,43.8,95,83,69,30.16,30.08,2,0,6,0.15
2013-9-16,61.6,54.1,44.2,53.0,48.5,40.4,95,83,56,30.42,30.15,6,2,12,0.00
2013-9-17,67.5,50.9,33.5,53.5,44.0,31.9,96,79,57,30.44,30.25,4,1,10,0.00
2013-9-18,75.9,59.9,42.1,59.8,51.7,40.2,96,76,50,30.25,30.05,6,1,13,0.00
2013-9-19,79.3,69.2,59.4,70.5,63.8,56.8,92,83,71,30.06,29.89,6,1,14,0.00
2013-9-20,76.8,70.6,66.0,71.5,67.5,64.2,94,90,81,29.89,29.72,6,2,14,0.08
2013-9-21,66.7,60.5,52.6,64.3,54.9,45.2,95,83,56,29.89,29.67,7,2,13,0.01
2013-9-22,56.1,50.2,40.9,45.2,42.9,38.5,93,77,61,30.12,29.89,6,2,11,0.00
2013-9-23,61.2,47.4,33.9,47.2,41.4,32.4,97,81,58,30.24,30.12,3,0,7,0.00
2013-9-24,69.2,51.1,36.8,52.0,44.0,35.3,97,79,52,30.19,30.03,2,0,9,0.00
2013-9-25,72.8,53.6,37.0,56.3,46.3,35.4,97,80,42,30.05,29.98,2,0,6,0.01
2013-9-26,77.5,55.4,38.9,59.4,48.4,37.3,97,81,42,30.17,30.03,2,0,6,0.01
2013-9-27,77.5,58.6,41.2,60.3,50.6,39.9,97,78,45,30.26,30.17,3,0,11,0.00
2013-9-28,76.9,63.5,45.7,61.4,55.1,43.7,96,77,50,30.21,30.01,7,2,14,0.01
2013-9-29,63.6,60.6,57.6,59.6,56.9,54.7,95,88,75,30.02,29.94,4,1,11,0.15
2013-9-30,70.6,59.7,52.2,57.0,54.0,50.1,96,83,51,30.04,29.93,4,0,11,0.00
2013-10-1,73.5,61.6,50.7,65.0,57.7,48.7,98,88,70,30.01,29.92,4,1,14,0.01
2013-10-2,77.9,63.7,49.2,60.2,52.9,44.0,96,73,32,30.10,29.94,3,0,7,0.01
2013-10-3,80.5,65.5,48.3,68.9,59.9,46.3,95,83,67,30.07,29.91,7,1,13,0.00
2013-10-4,77.7,69.6,64.0,69.4,65.8,61.3,95,88,73,30.03,29.93,3,0,9,0.03
2013-10-5,69.3,65.2,63.9,67.5,63.9,62.7,97,95,94,30.04,29.99,2,0,5,0.40
2013-10-6,69.5,58.6,53.0,64.9,56.3,51.3,95,92,85,29.73,29.64,7,2,13,0.56
2013-10-7,59.0,50.3,42.7,53.5,46.6,41.0,95,87,65,30.13,29.68,9,2,16,0.05
2013-10-8,68.0,53.3,38.7,50.7,45.1,37.1,97,76,50,30.31,30.13,5,1,12,0.00
2013-10-9,71.1,56.4,43.7,54.5,48.2,41.8,96,76,50,30.34,30.23,4,1,10,0.00
2013-10-10,71.8,53.8,40.2,57.1,45.6,38.8,100,77,41,30.25,30.15,4,0,7,0.01
2013-10-11,73.5,53.8,37.2,53.5,44.7,35.7,97,75,38,30.19,30.09,2,0,7,0.00
2013-10-12,75.7,61.0,45.1,63.1,54.2,43.5,97,80,51,30.12,30.04,5,1,13,0.00
2013-10-13,65.5,57.0,41.1,58.2,47.8,38.7,93,74,45,30.38,30.10,5,1,12,0.00
2013-10-14,63.6,47.8,34.5,46.3,40.2,33.0,96,78,47,30.45,30.31,4,0,8,0.00
2013-10-15,63.8,52.5,38.4,59.1,49.5,36.7,97,90,78,30.32,29.83,7,2,14,0.17
2013-10-16,60.9,53.8,49.8,59.2,50.3,45.9,95,88,76,29.91,29.80,7,2,15,0.01
2013-10-17,52.1,49.3,44.3,49.7,47.6,42.4,98,94,91,29.91,29.76,6,1,10,0.33
2013-10-18,61.4,49.3,42.2,47.3,42.8,40.6,95,80,49,29.93,29.85,8,2,13,0.02
2013-10-19,49.7,44.5,40.5,43.4,40.5,36.3,94,86,68,29.92,29.75,7,2,12,0.16
2013-10-20,55.3,47.3,39.3,44.4,40.8,37.4,93,79,58,29.94,29.83,7,2,16,0.02
2013-10-21,54.9,49.5,40.0,48.6,43.5,35.3,91,80,67,29.87,29.81,7,3,13,0.05
2013-10-22,46.9,40.1,32.9,36.0,31.6,27.4,83,72,57,29.94,29.86,8,3,14,0.00
2013-10-23,45.9,37.6,30.1,34.9,31.5,27.3,94,80,49,29.97,29.86,6,2,16,0.00
2013-10-24,45.7,35.8,29.0,34.7,30.7,27.2,94,83,57,30.22,29.96,7,2,13,0.01
2013-10-25,44.9,36.7,28.3,36.4,30.4,26.3,94,79,60,30.36,30.10,7,2,14,0.01
2013-10-26,49.2,42.5,36.8,39.2,33.5,29.2,93,71,56,30.10,29.77,10,4,17,0.15
2013-10-27,51.2,39.5,29.6,37.9,32.7,27.5,94,78,55,30.10,30.00,5,1,11,0.01
2013-10-28,47.9,38.6,30.5,39.8,33.0,28.3,95,81,68,30.46,30.07,4,1,10,0.00
2013-10-29,47.7,41.3,37.5,36.8,33.5,30.3,82,74,64,30.48,30.28,2,1,6,0.00
2013-10-30,63.9,47.6,31.5,50.6,41.0,29.9,96,79,58,30.28,29.97,5,1,14,0.04
2013-10-31,60.6,58.5,52.8,59.2,56.9,50.5,96,94,92,29.98,29.13,8,4,23,1.60
2013-11-1,60.2,48.8,44.8,58.5,44.3,40.3,95,85,73,29.68,29.10,15,6,23,0.13
2013-11-2,44.9,41.5,32.2,43.6,39.5,30.3,100,93,88,30.15,29.66,6,2,11,0.20
2013-11-3,44.7,35.4,25.9,38.0,31.1,24.4,96,85,69,30.49,30.15,3,1,7,0.01
2013-11-4,48.5,41.1,32.6,36.8,31.5,28.3,92,70,47,30.51,30.31,8,4,17,0.00
2013-11-5,54.6,50.4,44.5,47.7,43.9,36.8,87,78,72,30.37,30.17,8,3,17,0.00
2013-11-6,54.7,51.3,41.0,52.5,46.8,38.3,94,85,66,30.17,29.76,10,6,21,0.38
2013-11-7,42.7,38.2,32.8,39.4,31.6,27.3,94,78,56,30.16,30.00,9,4,18,0.02
2013-11-8,43.6,34.9,28.5,31.7,27.9,25.5,91,76,53,30.32,30.15,6,2,13,0.00
2013-11-9,53.2,46.1,37.4,42.0,36.3,30.0,76,69,61,30.21,29.81,12,6,21,0.01
2013-11-10,45.3,40.3,29.9,36.3,31.7,26.3,89,72,59,30.30,29.92,11,5,23,0.00
2013-11-11,42.1,35.2,26.8,37.8,30.5,21.5,93,83,72,30.36,30.07,9,4,16,0.15
2013-11-12,31.9,26.4,21.1,23.2,19.3,16.3,87,75,60,30.60,30.36,10,4,18,0.01
2013-11-13,39.2,28.5,17.4,26.2,18.8,14.8,90,69,42,30.59,30.18,9,3,16,0.01
2013-11-14,50.8,40.2,31.5,30.8,24.0,19.3,63,53,42,30.19,29.97,7,4,17,0.00
2013-11-15,51.8,44.0,36.6,31.8,28.5,25.4,68,55,41,30.08,29.99,6,2,15,0.00
2013-11-16,55.9,46.9,38.2,52.7,41.9,30.3,92,83,68,30.12,29.79,13,6,23,0.01
2013-11-17,62.2,56.3,43.9,59.0,53.4,39.6,94,90,79,29.80,29.19,20,10,30,0.83
2013-11-18,45.7,38.7,33.9,41.4,31.0,24.4,85,74,68,30.16,29.44,17,9,30,0.00
2013-11-19,39.3,32.2,25.6,27.0,21.1,-99.9,86,68,55,30.46,30.16,7,-20,16,0.00
2013-11-20,45.2,34.4,22.9,33.0,26.4,20.9,94,74,48,30.49,30.27,9,2,19,0.00
2013-11-21,48.3,43.9,40.7,43.8,37.7,29.5,94,79,64,30.32,30.20,9,4,17,0.09
2013-11-22,44.0,37.5,26.1,42.9,34.8,22.8,96,90,78,30.40,30.16,11,3,19,0.10
2013-11-23,26.2,9.5,19.8,23.7,-53.6,-99.9,91,29,59,30.57,30.30,15,-599,23,0.00
2013-11-24,22.7,7.5,14.7,12.2,-58.9,-99.9,83,25,59,30.65,30.43,8,-626,14,0.00
2013-11-25,-200.0,0.0,200.0,-99.9,-99.9,-99.9,0,0,100,30.44,30.06,0,-999,0,0.00
2013-11-26,-200.0,0.0,200.0,-99.9,-99.9,-99.9,0,0,100,30.07,29.92,0,-999,0,0.00
2013-11-27,24.4,7.0,19.3,16.4,-65.6,-99.9,81,21,59,30.24,29.92,13,-696,21,0.00
2013-11-28,-200.0,0.0,200.0,-99.9,-99.9,-99.9,0,0,100,30.41,30.24,0,-999,0,0.00
2013-11-29,32.3,8.0,23.6,23.2,-67.0,-99.9,88,19,61,30.68,30.40,1,-728,4,0.01
2013-11-30,43.4,12.0,31.1,31.1,-60.7,-99.9,75,20,59,30.58,30.11,12,-691,16,0.00
2013-12-1,39.6,18.4,31.5,33.9,-31.4,-99.9,91,45,79,30.11,30.02,7,-478,11,0.00
2013-12-2,38.9,31.3,23.9,29.1,25.6,20.8,92,80,56,30.04,29.93,2,0,5,0.00
2013-12-3,38.0,32.1,21.8,36.2,29.3,19.5,93,89,82,29.97,29.87,5,2,11,0.02
2013-12-4,56.7,45.8,37.5,54.0,43.6,35.7,95,92,87,29.92,29.61,11,3,18,0.07
2013-12-5,58.2,41.2,28.9,55.3,34.8,21.7,92,78,65,30.17,29.60,12,6,19,0.00
2013-12-6,28.8,23.7,18.6,22.1,16.6,11.7,78,74,69,30.46,30.16,6,4,12,0.00
2013-12-7,21.8,17.6,9.1,12.4,9.8,5.3,85,71,59,30.67,30.46,8,3,15,0.00
2013-12-8,26.4,17.9,8.3,24.4,13.1,4.9,92,82,66,30.67,30.04,6,1,12,0.00
2013-12-9,28.5,25.4,18.1,26.5,21.5,10.3,93,85,69,30.13,29.91,13,6,23,0.00
2013-12-10,20.6,16.5,9.6,16.8,9.9,3.1,87,75,51,30.23,29.99,11,4,19,0.00
2013-12-11,19.7,15.5,5.5,16.7,10.0,0.1,89,79,68,30.51,30.23,8,3,13,0.00
2013-12-12,20.1,11.6,-1.1,15.2,5.9,-4.5,89,78,56,30.51,30.23,9,3,16,0.00
2013-12-13,25.5,22.7,20.2,19.5,17.8,15.3,86,81,74,30.35,30.19,6,2,12,0.00
2013-12-14,20.6,18.9,17.0,18.4,15.8,12.8,91,88,77,30.34,29.89,5,2,11,0.00
2013-12-15,22.9,17.3,9.2,20.9,13.7,3.8,92,85,72,30.09,29.86,10,3,20,0.00
2013-12-16,23.7,11.1,-0.9,11.9,5.8,-4.1,92,80,58,30.25,30.08,2,0,5,0.11
2013-12-17,27.8,21.2,12.9,24.1,18.3,10.3,93,88,83,30.09,29.91,8,2,14,0.01
2013-12-18,28.2,25.4,21.7,24.3,20.7,14.5,93,83,66,30.15,29.91,9,4,20,0.00
2013-12-19,38.8,32.1,23.3,33.5,27.1,18.3,92,82,66,30.03,29.88,5,1,11,0.15
2013-12-20,33.8,32.8,32.1,32.5,31.4,30.6,95,95,93,29.95,29.77,3,0,7,0.35
2013-12-21,32.5,31.9,31.5,31.4,30.6,30.1,96,95,94,29.91,29.72,3,1,8,0.46
2013-12-22,32.6,30.8,26.2,31.3,29.4,24.7,95,95,94,30.01,29.61,0,0,0,0.54
2013-12-23,26.3,23.9,17.6,24.6,21.8,14.7,94,92,85,30.35,30.01,0,0,0,0.00
2013-12-24,17.5,10.8,2.3,14.6,7.6,-0.3,100,87,78,30.60,30.33,0,0,0,0.00
2013-12-25,22.7,18.1,10.4,20.7,15.2,7.5,92,88,85,30.57,30.15,9,3,18,0.00
2013-12-26,25.2,23.3,21.5,23.6,20.6,16.4,94,89,78,30.32,30.07,7,2,15,0.00
2013-12-27,38.2,30.7,25.0,33.9,28.0,22.6,100,90,78,30.36,30.06,6,1,15,0.12
2013-12-28,48.1,39.8,29.9,35.8,32.5,27.3,92,75,60,30.14,29.90,7,3,14,0.05
2013-12-29,40.2,32.5,17.6,32.6,26.3,11.9,92,78,69,30.06,29.72,10,4,15,0.00
2013-12-30,17.9,16.2,13.4,12.2,8.4,4.2,80,71,63,30.32,30.06,7,3,13,0.00
2013-12-31,17.1,14.6,11.2,13.2,10.0,5.2,89,82,69,30.40,30.10,9,4,17,0.00
2014-1-1,14.0,11.4,9.2,11.1,6.4,2.1,92,80,67,30.47,30.33,4,2,7,0.00
2014-1-2,13.6,9.9,0.4,10.4,6.1,-5.0,88,84,75,30.36,30.19,11,5,18,0.00